Home   Weather   Provincia di Siracusa   Past weeks
Flag for Italy

Past Weather in Provincia di Siracusa, Italy — Yesterday and Last 2 Weeks

Currently: 88 °F. Passing clouds. (Weather station: Catania / Fontanarossa, Italy). See more current weather

Past Weather in Provincia di Siracusa — Graph

°F

Provincia di Siracusa Temperature Yesterday

Maximum temperature yesterday: 93 °F (at 1:20 pm)
Minimum temperature yesterday: 75 °F (at 5:20 am)
Average temperature yesterday: 84 °F

High & Low Weather Summary for the Past Weeks

 TemperatureHumidityPressure
High97 °F (Jul 12, 10:20 am)84% (Jul 10, 11:20 pm)29.98 "Hg (Jul 10, 11:20 pm)
Low70 °F (Jul 11, 6:20 am)23% (Jul 14, 10:20 am)29.74 "Hg (Jul 22, 4:50 pm)
Average84 °F55%29.87 "Hg
* Reported Jul 10 3:20 pm — Jul 25 3:50 pm, Provincia di Siracusa. Weather by CustomWeather, © 2024

Note: Actual official high and low records may vary slightly from our data, if they occured in-between our weather recording intervals... More about our weather records

Provincia di Siracusa Weather History for the Previous 24 Hours

Scroll right to see more
 ConditionsComfort  
Time TempWeatherWind HumidityBarometerVisibility
3:50 pm
Thu, Jul 25
90 °FPassing clouds.13 mph55%29.77 "HgN/A
3:20 pm90 °FPassing clouds.14 mph52%29.77 "HgN/A
2:50 pm90 °FPassing clouds.14 mph59%29.77 "HgN/A
2:20 pm90 °FSunny.13 mph55%29.77 "Hg10 mi
1:50 pm90 °FPassing clouds.12 mph52%29.77 "HgN/A
1:20 pm88 °FSunny.12 mph55%29.77 "Hg10 mi
12:50 pm88 °FPassing clouds.12 mph52%29.80 "HgN/A
12:20 pm90 °FPassing clouds.10 mph43%29.80 "HgN/A
11:50 am90 °FSunny.9 mph46%29.80 "Hg10 mi
11:20 am88 °FPassing clouds.9 mph49%29.80 "HgN/A
10:20 am90 °FSunny.6 mph41%29.80 "Hg10 mi
9:50 am88 °FPassing clouds.3 mph46%29.80 "HgN/A
9:20 am86 °FSunny.3 mph52%29.80 "Hg10 mi
8:50 am84 °FSunny.6 mph55%29.80 "Hg10 mi
8:20 am81 °FSunny.6 mph62%29.80 "Hg10 mi
7:50 am77 °FSunny.6 mph69%29.80 "Hg10 mi
7:20 am75 °FSunny.7 mph74%29.80 "Hg10 mi
6:50 am73 °FSunny.6 mph83%29.77 "Hg10 mi
6:20 am73 °FSunny.3 mph83%29.77 "Hg10 mi
5:50 am73 °FClear.5 mph83%29.77 "Hg10 mi
5:20 am73 °FClear.2 mph83%29.77 "Hg10 mi
4:20 am73 °FClear.7 mph83%29.77 "Hg10 mi
3:50 am75 °FClear.5 mph78%29.77 "Hg10 mi
3:20 am77 °FClear.3 mph79%29.80 "Hg10 mi
2:50 am79 °FClear.3 mph74%29.80 "Hg10 mi
2:20 am79 °FClear.6 mph74%29.80 "Hg10 mi
1:50 am81 °FClear.6 mph74%29.80 "Hg10 mi
1:20 am81 °FClear.6 mph74%29.80 "Hg10 mi
12:50 am81 °FClear.6 mph74%29.83 "Hg10 mi
12:20 am81 °FClear.5 mph74%29.83 "Hg10 mi
11:50 pm
Wed, Jul 24
81 °FPassing clouds.6 mph74%29.83 "HgN/A
11:20 pm81 °FClear.8 mph74%29.83 "Hg10 mi
10:20 pm84 °FPassing clouds.5 mph70%29.83 "HgN/A
9:50 pm84 °FPassing clouds.7 mph66%29.83 "HgN/A
9:20 pm84 °FPassing clouds.12 mph66%29.80 "HgN/A
8:50 pm84 °FPassing clouds.12 mph70%29.80 "HgN/A
8:20 pm86 °FPassing clouds.16 mph62%29.80 "HgN/A
7:50 pm86 °FPartly sunny.14 mph62%29.80 "HgN/A
7:20 pm88 °FPartly sunny.12 mph59%29.80 "HgN/A
6:50 pm86 °FPartly sunny.16 mph62%29.80 "HgN/A
6:20 pm88 °FPartly sunny.15 mph59%29.80 "HgN/A
5:50 pm86 °FPartly sunny.16 mph66%29.80 "HgN/A
5:20 pm88 °FPartly sunny.16 mph62%29.80 "HgN/A
Weather by CustomWeather, © 2024

See weather overview